Location: Poughquag
(41.6090°N, 73.6820°W)
Time: 09:38:21
(UTC-05:00)

SR - Pass Details

Date: 09 December 2023
Orbit: 574 x 868 km, 66.7° (Epoch: 25 February)

Event Time Altitude Azimuth Distance (km) Brightness Sun altitude
Rises 20:18:13 0° 317° (NW) 3,423 ? -42.8°
Reaches altitude 10° 20:21:12 10° 304° (NW) 2,452 ? -43.4°
Enters shadow 20:22:22 15° 295° (WNW) 2,129 ? -43.6°
Maximum altitude 20:25:32 23° 254° (WSW) 1,655 - -44.2°
Drops below altitude 10° 20:29:39 10° 203° (SSW) 2,310 - -45.0°
Sets 20:32:23 0° 189° (S) 3,178 - -45.5°
